This is the latest recevied weather packets stored in our database for station/object DB0SVX. If no packets are shown the sender has not sent any weather packets the latest 10 day(s).
| Time | Temp. | Humidity | Pressure | Rain* | Wind** | Luminosity | Snow |
|---|---|---|---|---|---|---|---|
| 1777560919 | 22.22° C | 16% | 1021 hPa | 0 mm | - | - | - |
| 1777560019 | 21.67° C | 17% | 1021 hPa | 0 mm | - | - | - |
| 1777559119 | 20.56° C | 18% | 1020.9 hPa | 0 mm | - | - | - |
| 1777558219 | 20° C | 18% | 1021 hPa | 0 mm | - | - | - |
| 1777557319 | 19.44° C | 18% | 1021.2 hPa | 0 mm | - | - | - |
| 1777556419 | 18.89° C | 18% | 1021.2 hPa | 0 mm | - | - | - |
| 1777555519 | 18.89° C | 19% | 1021 hPa | 0 mm | - | - | - |
| 1777554619 | 18.89° C | 22% | 1021.4 hPa | 0 mm | - | - | - |
| 1777553719 | 18.33° C | 23% | 1021.5 hPa | 0 mm | - | - | - |
| 1777552819 | 17.78° C | 23% | 1021.5 hPa | 0 mm | - | - | - |
| 1777551919 | 18.33° C | 24% | 1021.7 hPa | 0 mm | - | - | - |
| 1777551019 | 18.89° C | 24% | 1021.7 hPa | 0 mm | - | - | - |
| 1777550119 | 19.44° C | 23% | 1021.9 hPa | 0 mm | - | - | - |
| 1777549219 | 18.89° C | 24% | 1022 hPa | 0 mm | - | - | - |
| 1777548319 | 19.44° C | 23% | 1022 hPa | 0 mm | - | - | - |
| 1777547419 | 20° C | 25% | 1022.2 hPa | 0 mm | - | - | - |
| 1777546519 | 18.89° C | 25% | 1022.2 hPa | 0 mm | - | - | - |
| 1777545619 | 18.89° C | 26% | 1022.4 hPa | 0 mm | - | - | - |
| 1777544719 | 17.78° C | 27% | 1022.4 hPa | 0 mm | - | - | - |
| 1777543819 | 16.67° C | 27% | 1022.4 hPa | 0 mm | - | - | - |
| 1777542919 | 16.67° C | 28% | 1022.5 hPa | 0 mm | - | - | - |
| 1777542019 | 16.11° C | 28% | 1022.5 hPa | 0 mm | - | - | - |
| 1777541119 | 15.56° C | 29% | 1022.7 hPa | 0 mm | - | - | - |
| 1777540219 | 15.56° C | 29% | 1022.7 hPa | 0 mm | - | - | - |
| 1777539319 | 15° C | 30% | 1022.5 hPa | 0 mm | - | - | - |
* Rain latest hour (hover to see other rain measurements)
** Current wind speed in m/s (hover to see current wind gust speed)